This is the latest recevied weather packets stored in our database for station/object W4WYD-2. If no packets are shown the sender has not sent any weather packets the latest 10 day(s).
| Time | Temp. | Humidity | Pressure | Rain* | Wind** | Luminosity | Snow |
|---|---|---|---|---|---|---|---|
| 1787684763 | 31.67° C | 50% | 1018.3 hPa | 0 mm | - | 519 W/m² | - |
| 1787684462 | 31.11° C | 48% | 1018.5 hPa | 0 mm | - | 461 W/m² | - |
| 1787684157 | 31.11° C | 53% | 1018.4 hPa | 0 mm | - | 651 W/m² | - |
| 1787683856 | 31.11° C | 50% | 1018.4 hPa | 0 mm | - | 809 W/m² | - |
| 1787683552 | 31.11° C | 48% | 1018.5 hPa | 0 mm | - | 670 W/m² | - |
| 1787683247 | 30.56° C | 48% | 1018.5 hPa | 0 mm | - | 539 W/m² | - |
| 1787682944 | 30.56° C | 48% | 1018.4 hPa | 0 mm | - | 965 W/m² | - |
| 1787682640 | 30° C | 50% | 1018.5 hPa | 0 mm | - | 872 W/m² | - |
| 1787682335 | 30.56° C | 50% | 1018.3 hPa | 0 mm | - | 853 W/m² | - |
| 1787682026 | 30.56° C | 52% | 1018.7 hPa | 0 mm | - | 859 W/m² | - |
| 1787681726 | 31.11° C | 54% | 1018.4 hPa | 0 mm | - | 857 W/m² | - |
| 1787681420 | 30° C | 54% | 1018.5 hPa | 0 mm | - | 844 W/m² | - |
| 1787681115 | 30° C | 52% | 1018.6 hPa | 0 mm | - | 866 W/m² | - |
| 1787680810 | 30° C | 52% | 1018.5 hPa | 0 mm | - | 866 W/m² | - |
| 1787680505 | 30° C | 51% | 1018.5 hPa | 0 mm | - | 863 W/m² | - |
| 1787680204 | 30° C | 49% | 1018.8 hPa | 0 mm | - | 869 W/m² | - |
| 1787679898 | 30° C | 51% | 1018.8 hPa | 0 mm | - | 868 W/m² | - |
| 1787679597 | 30° C | 48% | 1018.8 hPa | 0 mm | - | 861 W/m² | - |
| 1787679294 | 30° C | 47% | 1018.8 hPa | 0 mm | - | 862 W/m² | - |
| 1787678989 | 30° C | 47% | 1018.9 hPa | 0 mm | - | 864 W/m² | - |
| 1787678689 | 30° C | 49% | 1018.8 hPa | 0 mm | - | 856 W/m² | - |
| 1787678384 | 30.56° C | 54% | 1018.9 hPa | 0 mm | - | 847 W/m² | - |
| 1787678079 | 29.44° C | 51% | 1018.9 hPa | 0 mm | - | 850 W/m² | - |
| 1787677778 | 29.44° C | 52% | 1019.1 hPa | 0 mm | - | 841 W/m² | - |
| 1787677473 | 30° C | 51% | 1019.2 hPa | 0 mm | - | 832 W/m² | - |
* Rain latest hour (hover to see other rain measurements)
** Current wind speed in m/s (hover to see current wind gust speed)